When you browse on this site, cookies collect data to enhance your experience and personalize the content and advertising you see.
Visit our Privacy Policy to learn more. By continuing to use the site, you agree to this use of cookies and data.
  • In Czech Republic
  • List of Countries
  • For 7 days
  • Water Temperature
  • Weather Map
  • Weather Widgets
  • user-avatar
    Login

    Hourly Weather Hotovizh

    Today, 29 May, Friday

    Time Temperature Precipitation Wind Pressure Humidity
    00:00 +11°C° 1.8 mm 3 mps 748 mmHg 89%
    01:00 +11°C° 1.8 mm 4 mps 748 mmHg 92%
    02:00 +10°C° 0 mm 5 mps 747 mmHg 95%
    03:00 +10°C° 0.2 mm 5 mps 747 mmHg 94%
    04:00 +10°C° 0.2 mm 5 mps 746 mmHg 93%
    05:00 +10°C° 0.2 mm 5 mps 746 mmHg 92%
    06:00 +10°C° 0 mm 5 mps 746 mmHg 92%
    07:00 +12°C° 0 mm 4 mps 746 mmHg 92%
    08:00 +13°C° 0 mm 4 mps 746 mmHg 92%
    09:00 +14°C° 0 mm 4 mps 745 mmHg 89%
    10:00 +15°C° 0 mm 4 mps 745 mmHg 85%
    11:00 +18°C° 0 mm 4 mps 745 mmHg 81%
    12:00 +18°C° 0.4 mm 4 mps 745 mmHg 81%
    13:00 +19°C° 0.4 mm 4 mps 745 mmHg 80%
    14:00 +20°C° 0.4 mm 5 mps 745 mmHg 79%
    15:00 +19°C° 0.4 mm 5 mps 745 mmHg 80%
    16:00 +19°C° 0.4 mm 5 mps 744 mmHg 81%
    17:00 +19°C° 0.4 mm 5 mps 744 mmHg 82%
    18:00 +17°C° 0.3 mm 5 mps 744 mmHg 85%
    19:00 +17°C° 0.3 mm 6 mps 744 mmHg 88%
    20:00 +16°C° 0.3 mm 6 mps 744 mmHg 91%
    21:00 +15°C° 0.8 mm 6 mps 743 mmHg 93%
    22:00 +15°C° 0.8 mm 6 mps 743 mmHg 94%
    23:00 +15°C° 0.8 mm 6 mps 743 mmHg 96%

    Tomorrow, 30 May, Saturday

    Time Temperature Precipitation Wind Pressure Humidity
    00:00 +15°C° 1.5 mm 5 mps 743 mmHg 97%
    01:00 +15°C° 1.5 mm 5 mps 742 mmHg 97%
    02:00 +15°C° 1.5 mm 5 mps 742 mmHg 98%
    03:00 +15°C° 1.5 mm 5 mps 742 mmHg 97%
    04:00 +15°C° 1.5 mm 5 mps 741 mmHg 97%
    05:00 +15°C° 1.5 mm 5 mps 741 mmHg 97%
    06:00 +15°C° 0.7 mm 5 mps 741 mmHg 97%
    07:00 +15°C° 0.7 mm 6 mps 741 mmHg 96%
    08:00 +15°C° 0.7 mm 6 mps 741 mmHg 96%
    09:00 +16°C° 0.4 mm 6 mps 741 mmHg 94%
    10:00 +17°C° 0.4 mm 6 mps 740 mmHg 92%
    11:00 +19°C° 0.4 mm 5 mps 740 mmHg 91%
    12:00 +19°C° 1 mm 6 mps 740 mmHg 90%
    13:00 +20°C° 1 mm 7 mps 739 mmHg 90%
    14:00 +20°C° 1 mm 7 mps 739 mmHg 90%
    15:00 +20°C° 0.6 mm 8 mps 738 mmHg 90%
    16:00 +18°C° 0.6 mm 8 mps 738 mmHg 90%
    17:00 +18°C° 0.6 mm 9 mps 737 mmHg 90%
    18:00 +17°C° 5.5 mm 8 mps 737 mmHg 92%
    19:00 +17°C° 5.5 mm 7 mps 738 mmHg 94%
    20:00 +16°C° 5.5 mm 7 mps 738 mmHg 95%
    21:00 +15°C° 1.9 mm 5 mps 738 mmHg 96%
    22:00 +15°C° 1.9 mm 4 mps 738 mmHg 96%
    23:00 +15°C° 1.9 mm 2 mps 739 mmHg 97%

    Day after tomorrow, 31 May, Sunday

    Time Temperature Precipitation Wind Pressure Humidity
    00:00 +15°C° 0.8 mm 2 mps 739 mmHg 97%
    01:00 +14°C° 0.8 mm 2 mps 739 mmHg 98%
    02:00 +14°C° 0.8 mm 1 mps 739 mmHg 98%
    03:00 +14°C° 1.7 mm 1 mps 739 mmHg 98%
    04:00 +14°C° 1.7 mm 1 mps 739 mmHg 98%
    05:00 +14°C° 1.7 mm 1 mps 740 mmHg 97%
    06:00 +15°C° 0.7 mm 2 mps 740 mmHg 96%
    07:00 +14°C° 0.7 mm 3 mps 740 mmHg 94%
    08:00 +16°C° 0.7 mm 3 mps 741 mmHg 92%
    09:00 +15°C° 0.8 mm 5 mps 741 mmHg 91%
    10:00 +15°C° 0.8 mm 6 mps 742 mmHg 89%
    11:00 +16°C° 0.8 mm 8 mps 742 mmHg 88%
    12:00 +15°C° 0.2 mm 7 mps 743 mmHg 88%
    13:00 +14°C° 0.2 mm 7 mps 743 mmHg 88%
    14:00 +14°C° 0.2 mm 7 mps 744 mmHg 88%
    15:00 +12°C° 0.3 mm 7 mps 744 mmHg 89%
    16:00 +11°C° 0.3 mm 7 mps 744 mmHg 90%
    17:00 +11°C° 0.3 mm 8 mps 745 mmHg 91%
    18:00 +10°C° 0.2 mm 6 mps 745 mmHg 91%
    19:00 +10°C° 0.2 mm 5 mps 745 mmHg 91%
    20:00 +11°C° 0.2 mm 4 mps 746 mmHg 92%
    21:00 +10°C° 0 mm 4 mps 746 mmHg 92%
    22:00 +10°C° 0 mm 4 mps 747 mmHg 93%
    23:00 +8°C° 0 mm 4 mps 747 mmHg 93%

    1 June, Monday

    Time Temperature Precipitation Wind Pressure Humidity
    00:00 +8°C° 0 mm 4 mps 748 mmHg 91%
    01:00 +7°C° 0 mm 5 mps 748 mmHg 90%
    02:00 +6°C° 0 mm 5 mps 748 mmHg 88%
    03:00 +6°C° 0 mm 5 mps 748 mmHg 86%
    04:00 +6°C° 0 mm 5 mps 748 mmHg 85%
    05:00 +6°C° 0 mm 5 mps 749 mmHg 83%
    06:00 +7°C° 0 mm 6 mps 749 mmHg 78%
    07:00 +8°C° 0 mm 6 mps 749 mmHg 73%
    08:00 +9°C° 0 mm 6 mps 749 mmHg 68%
    09:00 +10°C° 0 mm 6 mps 750 mmHg 65%
    10:00 +11°C° 0 mm 6 mps 750 mmHg 62%
    11:00 +11°C° 0 mm 6 mps 750 mmHg 60%
    12:00 +11°C° 0 mm 6 mps 750 mmHg 60%
    13:00 +11°C° 0 mm 6 mps 749 mmHg 61%
    14:00 +11°C° 0 mm 6 mps 749 mmHg 61%
    15:00 +12°C° 0 mm 5 mps 749 mmHg 62%
    16:00 +12°C° 0 mm 5 mps 749 mmHg 62%
    17:00 +12°C° 0 mm 5 mps 749 mmHg 63%
    18:00 +11°C° 0 mm 4 mps 749 mmHg 68%
    19:00 +9°C° 0 mm 3 mps 750 mmHg 74%
    20:00 +8°C° 0 mm 2 mps 750 mmHg 79%
    21:00 +7°C° 0 mm 2 mps 750 mmHg 80%
    22:00 +6°C° 0 mm 2 mps 750 mmHg 81%
    23:00 +5°C° 0 mm 2 mps 750 mmHg 82%

    2 June, Tuesday

    Time Temperature Precipitation Wind Pressure Humidity
    00:00 +5°C° 0 mm 2 mps 750 mmHg 83%
    01:00 +5°C° 0 mm 2 mps 750 mmHg 85%
    02:00 +4°C° 0 mm 2 mps 750 mmHg 86%
    03:00 +3°C° 0 mm 3 mps 750 mmHg 85%
    04:00 +4°C° 0 mm 3 mps 750 mmHg 84%
    05:00 +4°C° 0 mm 3 mps 750 mmHg 84%
    06:00 +7°C° 0 mm 3 mps 750 mmHg 78%
    07:00 +9°C° 0 mm 3 mps 750 mmHg 73%
    08:00 +11°C° 0 mm 4 mps 750 mmHg 68%
    09:00 +12°C° 0 mm 4 mps 750 mmHg 64%
    10:00 +13°C° 0 mm 4 mps 750 mmHg 61%
    11:00 +14°C° 0 mm 4 mps 749 mmHg 57%
    12:00 +14°C° 0 mm 4 mps 749 mmHg 57%
    13:00 +14°C° 0 mm 4 mps 749 mmHg 56%
    14:00 +14°C° 0 mm 4 mps 749 mmHg 56%
    15:00 +14°C° 0 mm 4 mps 749 mmHg 58%
    16:00 +14°C° 0 mm 4 mps 748 mmHg 61%
    17:00 +14°C° 0 mm 4 mps 748 mmHg 63%
    18:00 +13°C° 0 mm 3 mps 748 mmHg 69%
    19:00 +11°C° 0 mm 3 mps 748 mmHg 76%
    20:00 +9°C° 0 mm 2 mps 748 mmHg 82%
    21:00 +8°C° 0 mm 2 mps 748 mmHg 84%
    22:00 +8°C° 0 mm 2 mps 748 mmHg 85%
    23:00 +7°C° 0 mm 2 mps 748 mmHg 86%

    3 June, Wednesday

    Time Temperature Precipitation Wind Pressure Humidity
    00:00 +6°C° 0 mm 2 mps 748 mmHg 87%
    01:00 +6°C° 0 mm 2 mps 748 mmHg 88%
    02:00 +5°C° 0 mm 2 mps 748 mmHg 89%
    03:00 +6°C° 0 mm 2 mps 748 mmHg 89%
    04:00 +6°C° 0 mm 2 mps 748 mmHg 88%
    05:00 +6°C° 0 mm 2 mps 748 mmHg 88%
    06:00 +8°C° 0 mm 2 mps 748 mmHg 81%
    07:00 +10°C° 0 mm 2 mps 748 mmHg 75%
    08:00 +13°C° 0 mm 2 mps 748 mmHg 69%
    09:00 +14°C° 0.1 mm 2 mps 748 mmHg 64%
    10:00 +15°C° 0.1 mm 2 mps 747 mmHg 59%
    11:00 +16°C° 0.1 mm 2 mps 747 mmHg 54%
    12:00 +16°C° 0 mm 2 mps 747 mmHg 53%
    13:00 +18°C° 0 mm 1 mps 747 mmHg 52%
    14:00 +18°C° 0 mm 1 mps 746 mmHg 52%
    15:00 +18°C° 0 mm 1 mps 746 mmHg 52%
    16:00 +18°C° 0 mm 1 mps 746 mmHg 53%
    17:00 +18°C° 0 mm 1 mps 746 mmHg 54%
    18:00 +15°C° 0 mm 1 mps 746 mmHg 61%
    19:00 +13°C° 0 mm 1 mps 746 mmHg 68%
    20:00 +11°C° 0 mm 1 mps 746 mmHg 76%
    21:00 +11°C° 0 mm 1 mps 746 mmHg 78%
    22:00 +10°C° 0 mm 1 mps 746 mmHg 80%
    23:00 +9°C° 0 mm 1 mps 746 mmHg 82%
    Show more